Observations for Trim Market St
| Time | AQI | Temp °C | Hum % | Pres Pa | CO μg/m³ | H₂S μg/m³ | NO μg/m³ | NO₂ μg/m³ | O₃ μg/m³ | SO₂ μg/m³ | PM1 μg/m³ | PM2.5 μg/m³ | PM10 μg/m³ |
|---|---|---|---|---|---|---|---|---|---|---|---|---|---|
| Wednesday 8 July 2026 | |||||||||||||
| 00:57 | 1 | 19.3 | 72 | 49,739 | 0 | 0 | 0 | 3.96 | 11.35 | 0 | 0 | 1.51 | 3.23 |
| 00:56 | 1 | 19.3 | 72 | 49,849 | 0 | 0 | 0 | 4.46 | 9.29 | 0 | 0 | 1.02 | 2.62 |
| 00:54 | 1 | 19.4 | 72 | 50,015 | 0 | 0 | 0 | 3.84 | 8.42 | 0 | 0 | 1.51 | 3.23 |
| 00:53 | 1 | 19.4 | 72 | 50,052 | 0 | 0 | 0 | 2.54 | 16.15 | 0 | 0 | 1.51 | 3.23 |
| 00:50 | 1 | 19.5 | 72 | 50,053 | 0 | 0 | 0 | 2.43 | 10.65 | 0 | 0 | 1.03 | 3.22 |
| 00:49 | 1 | 19.5 | 72 | 50,093 | 0 | 0 | 0 | 5.23 | 10.88 | 0 | 0 | 1.51 | 3.22 |
| 00:47 | 1 | 19.5 | 72 | 50,224 | 0 | 0 | 0 | 3.74 | 13.21 | 0 | 0 | 1.04 | 2.6 |
| 00:43 | 1 | 19.6 | 72 | 50,600 | 0 | 0 | 0 | 8.12 | 16.06 | 0 | 0 | 1.04 | 2.6 |
| 00:35 | 1 | 19.7 | 72 | 51,183 | 0 | 0 | 0 | 4.82 | 11.09 | 0 | 0 | 1.05 | 2.59 |
| 00:34 | 1 | 19.7 | 72 | 51,167 | 0 | 0 | 0 | 4.82 | 11.09 | 0 | 0 | 1.53 | 3.21 |
| 00:33 | 1 | 19.8 | 71 | 51,145 | 0 | 0 | 0 | 5.3 | 9.61 | 0 | 0 | 1.54 | 3.2 |
| 00:32 | 1 | 19.8 | 71 | 51,141 | 0 | 0 | 0 | 6.6 | 8.63 | 0 | 0 | 1.05 | 2.58 |
| 00:31 | 1 | 19.8 | 71 | 51,152 | 0 | 0 | 0 | 4.7 | 11.16 | 0 | 0 | 1.54 | 3.82 |
| 00:30 | 1 | 19.8 | 71 | 51,186 | 0 | 0 | 0 | 5.31 | 9.52 | 0 | 0.71 | 1.54 | 3.2 |
| 00:29 | 1 | 19.8 | 71 | 51,264 | 0 | 0 | 0 | 3.71 | 11.86 | 0 | 0 | 2.02 | 3.82 |
| 00:28 | 1 | 19.8 | 71 | 51,319 | 0 | 0 | 0 | 4.71 | 13.42 | 0 | 0 | 1.54 | 3.2 |
| 00:27 | 1 | 19.9 | 71 | 51,450 | 0 | 0 | 0 | 4.4 | 10.01 | 0 | 0 | 1.54 | 3.19 |
| 00:26 | 1 | 19.9 | 71 | 51,623 | 0 | 0 | 0 | 10.41 | 12.63 | 0 | 0 | 1.55 | 4.43 |
| 00:25 | 1 | 19.9 | 71 | 51,840 | 0 | 0 | 0 | 5.01 | 12.44 | 0 | 0 | 2.03 | 3.81 |
| 00:24 | 1 | 19.9 | 71 | 52,007 | 0 | 0 | 0 | 8.12 | 16.03 | 0 | 0 | 1.55 | 3.18 |